Погода в Правокумском

Россия / Ставропольский край     44°22′42″N   44°05′29″E
темп.,
°C
ветер,
м/с
пор.,
м/с
влажн.,
%
обл.,
%
осадки,
мм/ч
давл.,
гПа
погр.,
м
23 сентября, чт
чт2300:00+13ссз4790100 5.6 1013394
03:00+12ссз5889100 10.3 1013500
06:00+12ссз3684100 0.1 1013452
09:00+12ссз3385100 0.5 1013427
12:00+12ссз3486100 0.4 1013387
15:00+13с3478100 0.7 1012624
18:00+13ссз2385100 0.2 1013225
21:00+12с1290100 2.0 1013167
24 сентября, пт
пт2400:00+12ссв2293100 1.4 1011199
03:00+12с3492100 3.9 1011302
06:00+11с3592100 1.3 1012366
09:00+12сз4587100 4.2 1014463
12:00+11сз4786100 1.3 1014512
15:00+14зсз4665100 1.8 1014898
18:00+13зюз226870 0.0 101422
21:00+13юз346995 0.0 101568
25 сентября, сб
сб2500:00+11зюз358242 0.0 101584
03:00+11з2278100 0.0 101436
06:00+11ююв3369100 0.0 101455
09:00+14ююв4766100 0.0 1013470
12:00+18ю344799 0.0 10121028
15:00+16зсз81153100 0.0 10151159
18:00+12зюз3983100 2.8 1016471
21:00+13зюз41078100 4.3 1017413
26 сентября, вс
вс2600:00+12з5107999 0.1 1018423
03:00+11з5137791 0.1 1020917
06:00+11з511815 0.0 1021422
09:00+14зсз711624 0.0 10221098
12:00+18зсз8124230 0.0 10202152
15:00+20зсз8113961 0.0 10192191
18:00+16сз475842 0.0 1019238
21:00+16зюз4864100 0.0 1018572
27 сентября, пн
пн2700:00+16зюз51265100 0.0 1017744
03:00+16з6126591 0.1 1016936
06:00+14з497282 0.0 1016450
09:00+15зсз51076100 0.2 10171167
12:00+18зсз61054100 0.4 10161712
15:00+19зсз584499 0.4 10161926
18:00+17ссз364995 0.0 1016182
21:00+15ссв4754100 0.0 1017314